sat.trackr.live / text

‹ back to catalog

STARLINK-3226

NORAD 49740 · 2021-115S

PAYLOAD ACTIVE UNKNOWN

§ Identity

Operator
Country
US
Launch date
2021-12-02
Launch site
AFETR
Launch vehicle
Mass (kg)
RCS (m²)

Purposes: comms

External: N2YO · Heavens-Above · Gunter

§ Orbital elements

Epoch: 2026-09-19T18:30:00.607968Z

Period
94.01 min
Inclination
53.1612°
Eccentricity
0.0000996
Mean motion
15.31705763 rev/d
Perigee alt
470.0 km
Apogee alt
471.4 km
Semi-major
6,848.9 km
B*
1.4411e-5
RAAN
343.1564°
Arg perigee
78.8115°
Mean anomaly
281.2999°
Rev number
26,503

§ Raw data

STARLINK-32261 49740U 21115S   26262.77084037  .00000082  00000+0  14411-4 0  99922 49740  53.1612 343.1564 0000996  78.8115 281.2999 15.31705763265038

JSON: /api/v1/satellites/49740 · /tle

For live sub-satellite position, see the globe view (requires WebGL).

§ Visibility from observer

Set your observer location to see the next 7 days of passes ≥ 10°. The values pass through the URL so the page stays shareable.

No JS? Fill the form by hand. The geolocation button needs JavaScript.